Hourly Data Report for May 08, 2021

WIARTON A
ONTARIO
Current Station Operator: NAVCAN

44°44'39.000" N
81°06'31.000" W
221.90 m
6119499
71633
YVV

Download Data

Hourly Data (May 2021)
Hourly Data Report for May 8, 2021
TIME
LST
Temp Definition
°C
Dew Point Definition
°C
Rel Hum Definition
%
Precip. Amount Definition
mm

Wind Dir Definition
10's deg

Wind Spd Definition
km/h
Visibility Definition
km
Stn Press Definition
kPa
Hmdx Definition


Wind Chill Definition


Weather Definition


00:00 4.5 1.9 83   33 9 16.1 98.64     Rain Showers
01:00 4.3 2.6 89   19 8 16.1 98.68     Rain Showers
02:00 4.0 2.9 93   30 5 16.1 98.66     Rain Showers
03:00 4.0 2.8 92   31 8 16.1 98.64     Rain Showers
04:00 3.8 2.7 93   29 6 16.1 98.64     Rain Showers
05:00 3.8 2.6 92   30 5 24.1 98.69     LegendNANA
06:00 4.0 3.0 93   26 5 24.1 98.75     LegendNANA
07:00 4.8 2.5 85   32 8 24.1 98.80     Mostly Cloudy
08:00 5.7 2.8 82   32 10 24.1 98.84     LegendNANA
09:00 6.0 3.1 81   32 12 24.1 98.88     LegendNANA
10:00 6.3 2.8 78   31 10 24.1 98.93     Cloudy
11:00 6.6 2.7 76   32 10 24.1 98.95     LegendNANA
12:00 7.4 2.9 73   30 10 24.1 98.95     LegendNANA
13:00 9.1 3.2 66   27 10 24.1 98.95     Mostly Cloudy
14:00 9.0 2.4 63   28 17 24.1 98.97     LegendNANA
15:00 9.4 2.0 60   29 17 24.1 98.99     LegendNANA
16:00 9.2 1.4 58   28 17 24.1 99.00     Mainly Clear
17:00 8.8 2.2 63   28 9 24.1 99.01     LegendNANA
18:00 8.3 1.2 61   29 10 24.1 99.01     LegendNANA
19:00 7.1 1.1 66   27 9 24.1 99.04     Clear
20:00 5.2 2.1 80   24 7 24.1 99.07     LegendNANA
21:00 3.8 2.0 88   22 8 24.1 99.09     LegendNANA
22:00 3.2 2.1 93   23 9 24.1 99.12     Clear
23:00 1.8 0.9 94   20 9 24.1 99.11     LegendNANA

Notes on Data Quality.

Legend

  • E = Estimated
  • M = Missing
  • NA = Not Available*
  • [empty] = Indicates an unobserved value
Date modified: